Terug naar catalogus

OPS 4682 DEB

ActiefPO
NORAD 38374·DEBRIS·🇺🇸 United States

Gelanceerd Apr 3, 1965 vanaf Vandenberg Space Force Base

Loading…

Volgende Passages (komende 24 uur)

TLE

VersSource: Space-Track

Epoch: Sep 14, 2026, 02:00 UTC

1 38374U 65027CB  26257.08342918  .00000857  00000-0  27681-2 0  9998
2 38374  90.2552  16.0773 0021836 344.7259  15.3202 13.01370153624197

Volg OPS 4682 DEB in realtime met AllMySat

Download on the App Store